Regional Weather Roundup
Issued by NWS

Home | Current Version | Previous Version | Graphics & Text | Print | Product List | Glossary On
Versions: 1 2 3 4 5 6 7 8 9 10 11 12 13 14 15 16 17 18 19 20 21 22 23 24 25 26 27 28 29 30 31 32 33 34 35 36 37 38 39 40 41 42 43 44 45 46 47 48 49 50
000
ASUS43 KIND 230309
RWRIN

WEATHER ROUNDUP FOR INDIANA
NATIONAL WEATHER SERVICE INDIANAPOLIS IN
1100 PM EDT MON SEP 22 2014

NOTE: "FAIR" INDICATES FEW OR NO CLOUDS BELOW 12,000 FEET WITH NO
SIGNIFICANT WEATHER AND/OR OBSTRUCTIONS TO VISIBILITY.

* - STATION DOES NOT REPORT WEATHER SUCH AS PRECIPITATION OR FOG.

+ - STATION NOT QUALITY CONTROLLED BY THE NATIONAL WEATHER SERVICE.
    USE DATA WITH CAUTION...ESPECIALLY DEWPOINT AND RELATIVE
    HUMIDITY OBSERVATIONS.

INZ001>003-010>013-019-020-230400-
NORTHWEST INDIANA

CITY           SKY/WX    TMP DP  RH WIND       PRES   REMARKS
GARY /AIRPORT/ CLEAR     47  45  93 CALM      30.28R
KNOX *+        CLEAR     46  44  92 CALM      30.28R
LA PORTE +     CLEAR     45  45 100 CALM      30.29R
MICHIGAN CITY+ CLEAR     45  45 100 CALM      30.28R
MONTICELLO +   CLEAR     51  46  84 NE5       30.27S
RENSSELAER +   CLEAR     46  46 100 CALM      30.28S
VALPARAISO     CLEAR     48  44  86 CALM      30.29R

$$

LMZ046-743>745-230400-
SOUTHERN LAKE MICHIGAN

STATION/POSITION TIME  TEMP WIND        PRES
                       AIR  DIR/SP/G
                 (UTC) (F)  (DEG/KT/KT) (MB)

$$

INZ004-005-014>016-021>024-230400-
NORTH CENTRAL INDIANA

CITY           SKY/WX    TMP DP  RH WIND       PRES   REMARKS
GOSHEN         CLEAR    N/A N/A N/A CALM      30.28R
LOGANSPORT +   CLEAR     50  45  81 N6        30.30R
PERU/GRISSOM   CLEAR     50  49  97 NE5       30.28R
ROCHESTER +    CLEAR     50  46  87 E3        30.29R
SOUTH BEND     CLEAR     47  43  86 CALM      30.28S
WARSAW +       CLEAR     46  45  93 CALM      30.29R

$$

INZ006>009-017-018-025>027-230400-
NORTHEAST INDIANA

CITY           SKY/WX    TMP DP  RH WIND       PRES   REMARKS
ANGOLA *+      CLEAR     46  45  93 CALM      30.28R
AUBURN +       CLEAR     50  45  81 CALM      30.29R
FORT WAYNE     CLEAR     50  45  83 N5        30.29R
HUNTINGTON +   CLEAR     49  46  91 CALM      30.28R

$$

INZ028-029-035-036-043>045-051>053-230400-
WEST CENTRAL INDIANA

CITY           SKY/WX    TMP DP  RH WIND       PRES   REMARKS
GREENCASTLE +  CLEAR     50  46  87 CALM      30.28R
LAFAYETTE      CLEAR     53  45  74 NE5       30.28R
TERRE HAUTE    CLEAR     48  46  93 CALM      30.27R

$$

INZ030>032-037>040-046>048-054>057-064-065-230400-
CENTRAL INDIANA

CITY           SKY/WX    TMP DP  RH WIND       PRES   REMARKS
CP ATTERBURY + CLEAR     46  45  93 CALM      30.28R
FRANKFORT +    CLEAR     48  48 100 N3        30.29R
INDIANAPOLIS   CLEAR     54  44  69 N5        30.27R
-EAGLE CREEK   CLEAR     55  49  80 CALM      30.27R
KOKOMO *+      CLEAR     52  45  76 N7        30.29R
MARION +       CLEAR     49  44  83 N3        30.29R
MT COMFORT *+  CLEAR     46  45  93 CALM      30.28R
SHELBYVILLE    CLEAR     49  44  83 CALM      30.27R
ZIONSVILLE +   CLEAR     46  43  88 CALM      30.28R

$$

INZ033-034-041-042-049-050-058-059-230400-
EAST CENTRAL INDIANA

CITY           SKY/WX    TMP DP  RH WIND       PRES   REMARKS
MUNCIE         CLEAR     49  44  83 CALM      30.28R

$$

INZ060-061-067>069-081>083-085>088-230400-
SOUTHWEST INDIANA

CITY           SKY/WX    TMP DP  RH WIND       PRES   REMARKS
EVANSVILLE     CLEAR     57  48  72 CALM      30.26R
WASHINGTON +   CLEAR     48  47  95 CALM      30.26R

$$

INZ062-063-066-070>080-084-089>092-230400-
SOUTH CENTRAL AND SOUTHEAST INDIANA

CITY           SKY/WX    TMP DP  RH WIND       PRES   REMARKS
BEDFORD +      CLEAR     50  46  87 CALM      30.27R
BLOOMINGTON    CLEAR     47  45  93 CALM      30.27S
NORTH VERNON + CLEAR     48  48 100 CALM      30.28
SEYMOUR +      CLEAR     48  46  93 CALM      30.28

$$




USA.gov is the U.S. government's official web portal to all federal, state and local government web resources and services.